Location: Basses Si�yes
(44.0835°N, 6.2037°E)
Time: 04:27:32
(UTC+00:00)

Cosmos 220 Rocket - Pass Details

Date: 27 February 2020
Orbit: 575 x 616 km, 74.0° (Epoch: 02 April)

Event Time Altitude Azimuth Distance (km) Brightness Sun altitude
Rises 18:30:15 0° 191° (S) 2,828 7.6 -13.4°
Reaches altitude 10° 18:32:29 10° 188° (S) 1,924 6.7 -13.8°
Maximum altitude 18:36:44 64° 107° (ESE) 656 3.9 -14.5°
Drops below altitude 10° 18:40:57 10° 27° (NNE) 1,915 6.3 -15.3°
Sets 18:43:11 0° 24° (NNE) 2,814 7.2 -15.7°
